Whidbey Island, WA
on Thursday, December 6, 2012

Thursday
Previous Day Next Day
Daily Summary
 ActualAverageRecord
Temperature
Mean Temperature °F °F  
Max Temperature 44°F 45°F 53°F (2014)
Min Temperature 42°F 36°F 23°F (2013)
Degree Days
Heating Degree Days 22    
Moisture
Dew Point 39°F   
Average Humidity 83    
Maximum Humidity 89    
Minimum Humidity 79    
Precipitation
Precipitation 0.11 in in in ()
Wind
Wind Speed 10 mph   
Max Wind Speed 17 mph   
Max Gust Speed mph   
Visibility 9 miles   
Events Rain   
Averages and records for this station are not official NWS values.
Key: T is trace of precipitation, MM is missing value
Source: NWS Daily Summary
Seasonal Weather Averages
Time(PST)TemperatureDew PointHumidity Pressure Visibility Wind DirectionWind SpeedGust SpeedPrecipitationEvents Conditions
12:56 AM 44.1°F 37.9°F 79% 30.15 in 10.0 miles SSE 11.5 mph - N/A   Mostly Cloudy
1:56 AM 44.1°F 37.9°F 79% 30.15 in 10.0 miles SSE 8.1 mph - N/A   Mostly Cloudy
2:56 AM 44.1°F 37.9°F 79% 30.15 in 10.0 miles SSE 9.2 mph - N/A   Overcast
3:56 AM 42.1°F 37.0°F 82% 30.13 in 10.0 miles ESE 6.9 mph - N/A   Overcast
4:56 AM 43.0°F 37.9°F 82% 30.12 in 10.0 miles SE 8.1 mph - N/A   Overcast
5:56 AM 43.0°F 37.9°F 82% 30.09 in 10.0 miles ESE 9.2 mph - N/A   Overcast
6:41 AM 42.8°F 37.4°F 81% 30.08 in 10.0 miles ESE 8.1 mph - N/A   Overcast
6:56 AM 43.0°F 37.9°F 82% 30.08 in 10.0 miles ESE 8.1 mph - 0.00 in Rain Light Rain
7:56 AM 43.0°F 37.9°F 82% 30.08 in 9.0 miles SSE 10.4 mph - 0.00 in Rain Light Rain
8:56 AM 43.0°F 39.0°F 86% 30.08 in 8.0 miles SSE 10.4 mph - 0.01 in Rain Light Rain
9:56 AM 44.1°F 39.0°F 82% 30.07 in 8.0 miles SSE 11.5 mph - 0.00 in Rain Light Rain
10:56 AM 43.0°F 39.9°F 89% 30.09 in 7.0 miles South 11.5 mph - 0.03 in Rain Light Rain
11:38 AM 44.6°F 39.2°F 81% 30.06 in 8.0 miles SSW 5.8 mph - 0.00 in Rain Light Rain
11:56 AM 44.1°F 39.9°F 85% 30.07 in 7.0 miles SW 5.8 mph - 0.00 in Rain Light Rain
12:41 PM 42.8°F 39.2°F 87% 30.06 in 6.0 miles WSW 9.2 mph - 0.01 in Rain Light Rain
12:56 PM 43.0°F 39.0°F 86% 30.07 in 7.0 miles SW 9.2 mph - 0.02 in Rain Light Rain
1:41 PM 44.6°F 39.2°F 81% 30.05 in 8.0 miles WSW 13.8 mph - 0.00 in Rain Light Rain
1:56 PM 44.1°F 39.0°F 82% 30.06 in 8.0 miles WSW 15.0 mph - 0.01 in Rain Light Rain
2:56 PM 44.1°F 39.0°F 82% 30.06 in 8.0 miles West 11.5 mph - 0.01 in Rain Light Rain
3:56 PM 43.0°F 39.0°F 86% 30.06 in 9.0 miles West 13.8 mph - 0.02 in Rain Light Rain
4:56 PM 44.1°F 39.0°F 82% 30.07 in 9.0 miles WSW 11.5 mph - 0.01 in Rain Light Rain
5:56 PM 44.1°F 39.0°F 82% 30.08 in 9.0 miles West 12.7 mph - 0.00 in Rain Light Rain
6:27 PM 44.6°F 39.2°F 81% 30.07 in 10.0 miles West 11.5 mph - 0.00 in   Overcast
6:56 PM 44.1°F 37.9°F 79% 30.08 in 10.0 miles West 11.5 mph - 0.00 in   Mostly Cloudy
7:56 PM 44.1°F 39.0°F 82% 30.09 in 10.0 miles West 16.1 mph - N/A   Mostly Cloudy
8:56 PM 44.1°F 37.9°F 79% 30.10 in 10.0 miles WSW 9.2 mph - N/A   Mostly Cloudy
9:56 PM 43.0°F 37.9°F 82% 30.10 in 10.0 miles South 10.4 mph - N/A   Scattered Clouds
10:56 PM 43.0°F 39.0°F 86% 30.08 in 10.0 miles SSE 16.1 mph - 0.00 in Rain Light Rain
11:56 PM 42.1°F 37.9°F 85% 30.07 in 7.0 miles SE 17.3 mph - 0.00 in   Overcast
Moon Phase
Dec. 06 Dec. 13 Dec. 20 Dec. 28 Jan. 04
Sunrise:07:47 AM (PST) Moon Rise:No Moon Rise/
Sunset:04:16 PM (PST) Moon Set:12:14 PM (PST)12/6

Copyright © 2014 The Weather Underground, Inc.